sat.trackr.live / text

‹ back to catalog

APSTAR-6D

NORAD 45863 · 2020-045A

PAYLOAD ACTIVE UNKNOWN

§ Identity

Operator
Country
PRC
Launch date
2020-07-09
Launch site
XICLF
Launch vehicle
Mass (kg)
RCS (m²)

Purposes: comms

External: N2YO · Heavens-Above · Gunter

§ Orbital elements

Epoch: 2026-05-24T11:16:13.096992Z

Period
1,435.96 min
Inclination
0.0503°
Eccentricity
0.0002727
Mean motion
1.00281622 rev/d
Perigee alt
35,772.3 km
Apogee alt
35,795.3 km
Semi-major
42,162.0 km
B*
0.0000e+0
RAAN
99.6761°
Arg perigee
353.6276°
Mean anomaly
91.9138°
Rev number
2,162

§ Raw data

APSTAR-6D1 45863U 20045A   26144.46959603 -.00000320  00000+0  00000+0 0  99902 45863   0.0503  99.6761 0002727 353.6276  91.9138  1.00281622 21628

JSON: /api/v1/satellites/45863 · /tle

For live sub-satellite position, see the globe view (requires WebGL).

§ Visibility from observer

Set your observer location to see the next 7 days of passes ≥ 10°. The values pass through the URL so the page stays shareable.

No JS? Fill the form by hand. The geolocation button needs JavaScript.